Location: Bouillancy
(49.1149°N, 2.9308°E)
Time: 23:21:08
(UTC+00:00)

Lacrosse 4 Rocket - Pass Details

Date: 30 September 2020
Orbit: 543 x 615 km, 68.0° (Epoch: 25 October)

Event Time Altitude Azimuth Distance (km) Brightness Sun altitude
Rises 20:14:59 0° 312° (NW) 2,728 6.1 -27.1°
Reaches altitude 10° 20:17:48 10° 292° (WNW) 1,838 4.9 -27.5°
Maximum altitude 20:20:24 17° 252° (WSW) 1,472 3.9 -27.9°
Enters shadow 20:21:34 15° 232° (SW) 1,554 3.8 -28.1°
